TimeEST,TemperatureF,Dew PointF,Humidity,Sea Level PressureIn,VisibilityMPH,Wind Direction,Wind SpeedMPH,Gust SpeedMPH,PrecipitationIn,Events,Conditions,WindDirDegrees,DateUTC
12:53 AM,45.0,35.1,68,30.02,10.0,Calm,Calm,-,N/A,,Overcast,0,2012-11-06 05:53:00
1:53 AM,46.0,36.0,68,30.00,10.0,Calm,Calm,-,N/A,,Overcast,0,2012-11-06 06:53:00
2:53 AM,46.0,36.0,68,30.01,10.0,Calm,Calm,-,N/A,,Overcast,0,2012-11-06 07:53:00
3:53 AM,46.9,36.0,66,30.01,10.0,Calm,Calm,-,N/A,,Overcast,0,2012-11-06 08:53:00
4:53 AM,46.0,36.0,68,30.01,10.0,Calm,Calm,-,N/A,,Overcast,0,2012-11-06 09:53:00
5:53 AM,45.0,37.9,76,30.02,10.0,Calm,Calm,-,0.00,Rain,Light Rain,0,2012-11-06 10:53:00
6:53 AM,45.0,39.0,80,30.04,10.0,Calm,Calm,-,0.00,Rain,Light Rain,0,2012-11-06 11:53:00
7:53 AM,44.1,41.0,89,30.06,9.0,Calm,Calm,-,0.02,Rain,Light Rain,0,2012-11-06 12:53:00
8:53 AM,45.0,41.0,86,30.06,9.0,Calm,Calm,-,0.00,Rain,Light Rain,0,2012-11-06 13:53:00
9:37 AM,44.6,42.8,93,30.04,8.0,Calm,Calm,-,0.01,Rain,Light Rain,0,2012-11-06 14:37:00
9:53 AM,45.0,39.9,82,30.06,10.0,East,4.6,-,0.01,Rain,Light Rain,90,2012-11-06 14:53:00
10:53 AM,48.0,41.0,77,30.06,10.0,Calm,Calm,-,0.00,,Overcast,0,2012-11-06 15:53:00
11:53 AM,50.0,41.0,71,30.04,10.0,Calm,Calm,-,N/A,,Overcast,0,2012-11-06 16:53:00
12:53 PM,50.0,41.0,71,30.01,10.0,Calm,Calm,-,N/A,,Overcast,0,2012-11-06 17:53:00
1:00 PM,50.0,41.0,71,30.00,10.0,SSW,3.5,-,N/A,,Overcast,200,2012-11-06 18:00:00
1:50 PM,51.8,41.0,67,29.98,10.0,Calm,Calm,-,N/A,,Overcast,0,2012-11-06 18:50:00
1:53 PM,51.1,41.0,68,29.99,10.0,Calm,Calm,-,N/A,,Overcast,0,2012-11-06 18:53:00
2:53 PM,51.1,39.9,66,29.98,10.0,SSW,3.5,-,N/A,,Overcast,210,2012-11-06 19:53:00
3:53 PM,51.1,39.9,66,29.98,10.0,Calm,Calm,-,N/A,,Overcast,0,2012-11-06 20:53:00
4:53 PM,48.9,43.0,80,29.98,10.0,Calm,Calm,-,0.00,,Overcast,0,2012-11-06 21:53:00
5:53 PM,48.9,44.1,83,29.98,10.0,Calm,Calm,-,N/A,,Overcast,0,2012-11-06 22:53:00
6:53 PM,48.0,43.0,83,29.98,10.0,East,3.5,-,N/A,,Overcast,90,2012-11-06 23:53:00
7:30 PM,48.2,42.8,82,29.97,10.0,Calm,Calm,-,N/A,,Overcast,0,2012-11-07 00:30:00
7:53 PM,48.0,43.0,83,29.99,10.0,Calm,Calm,-,N/A,,Overcast,0,2012-11-07 00:53:00
8:49 PM,48.2,42.8,82,29.97,10.0,Calm,Calm,-,N/A,,Overcast,0,2012-11-07 01:49:00
8:53 PM,48.0,43.0,83,29.99,10.0,Calm,Calm,-,N/A,,Overcast,0,2012-11-07 01:53:00
9:53 PM,48.0,42.1,80,29.99,10.0,Calm,Calm,-,N/A,,Overcast,0,2012-11-07 02:53:00
10:53 PM,46.9,43.0,86,29.96,9.0,Calm,Calm,-,N/A,,Overcast,0,2012-11-07 03:53:00
11:53 PM,46.9,44.1,90,29.95,5.0,Calm,Calm,-,0.01,Rain,Light Rain,0,2012-11-07 04:53:00